Home   Weather   San Diego   Past weeks

Flag for USA Past Weather in San Diego, California, USA — Yesterday and Last 2 Weeks

Now
56 °F

Partly cloudy.


Feels Like: 52 °F
Forecast: 55 / 60 °F
Wind: 17 mph from West

Location: San Diego - North Island

Current Time: Jan 21, 2017 at 12:29:41 am

Latest Report: Jan 20, 2017 at 9:52 pm


Visibility: 10 mi

Pressure: 29.62 "Hg

Humidity: 72%

Dew Point: 47 °F

Location of San DiegoLocation

Past Weather in San Diego — Graph

°F

San Diego Temperature Yesterday

Maximum temperature yesterday: 58 °F (at 3:52 pm)
Minimum temperature yesterday: 54 °F (at 2:52 am)
Average temperature yesterday: 56 °F

High & Low Weather Summary for the Past Weeks

 TemperatureHumidityPressure
High69 °F (Jan 8, 2:52 pm)100% (Jan 6, 6:52 am)30.21 "Hg (Jan 6, 6:52 am)
Low47 °F (Jan 17, 3:52 am)43% (Jan 7, 11:52 am)29.51 "Hg (Jan 20, 2:52 pm)
Average57 °F83%30.04 "Hg
* Reported Jan 5 9:26 pm — Jan 20 9:52 pm, San Diego, Weather by CustomWeather, © 2017

Note: Actual official high and low records may vary slightly from our data, if they occured in-between our weather recording intervals... More about our weather records

Advertising

San Diego Weather History for the Previous 24 Hours

Scroll right to see more
 ConditionsComfort  
Time TempWeatherWind HumidityBarometerVisibility
9:52 pm
Fri, Jan 20
56 °FPartly cloudy.17 mph72%29.62 "Hg10 mi
8:52 pm57 °FPassing clouds.21 mph69%29.61 "Hg10 mi
7:52 pm56 °FPartly cloudy.15 mph77%29.60 "Hg10 mi
6:52 pm55 °FPassing clouds.13 mph77%29.58 "Hg10 mi
5:52 pm54 °FLight rain. Partly cloudy.22 mph83%29.56 "Hg4 mi
4:52 pm56 °FLight rain. Broken clouds.20 mph75%29.52 "Hg6 mi
3:52 pm58 °FBroken clouds.17 mph87%29.52 "Hg8 mi
3:19 pm57 °FBroken clouds.18 mph81%29.53 "Hg10 mi
2:52 pm56 °FHeavy rain. Fog.23 mph93%29.51 "Hg1 mi
2:30 pm56 °FHeavy rain. Fog.25 mph97%29.52 "Hg1 mi
1:11 pm56 °FLight rain. Mostly cloudy.39 mph90%29.55 "Hg7 mi
11:52 am56 °FLight rain. Fog.29 mph90%29.65 "Hg5 mi
11:29 am56 °FLight rain. Fog.23 mph90%29.70 "Hg4 mi
9:52 am55 °FLight rain. Fog.17 mph88%29.80 "Hg4 mi
8:52 am55 °FLight rain. Fog.14 mph87%29.80 "Hg4 mi
7:52 am55 °FRain. Fog.15 mph87%29.82 "Hg3 mi
6:52 am55 °FLight rain. Fog.13 mph74%29.82 "Hg4 mi
5:52 am57 °FFog.12 mph83%29.81 "Hg5 mi
4:52 am56 °FPassing clouds.6 mph84%29.82 "Hg9 mi
3:52 am56 °FPassing clouds.7 mph84%29.83 "Hg9 mi
2:52 am54 °FPartly cloudy.6 mph80%29.86 "Hg8 mi
1:52 am55 °FPartly cloudy.6 mph87%29.88 "Hg8 mi
12:52 am55 °FPartly cloudy.5 mph87%29.88 "Hg8 mi
Weather by CustomWeather, © 2017

See weather overviewHow to use our weather pages